DECAYED

CZ-6A DEB, 61460 (Decayed)

Orbit data source: Space-Track

CZ-6A DEB, 61460 was space debris in LEO originally from a launch on Tue, 06 Aug 2024 UTC launched from the Taiyaun Space Center, China (TSC). Debris objects in space refer to the collection of defunct objects orbiting the Earth. Examples of debris include non-operational satellites, rocket bodies, and fragments generated from explosions, collisions, or faulty payload assembly.

Loading next visibility...
Identifier
61460, 2024-140ZS
Orbit
Decayed
Country
Flag of CNCN / PRC
Related business
Manufacturer
SAST
Mission
Decayed spacecraft
Bus & Motor
Unknown
Mass
Unknown
Launch date (UTC)
2024-08-06 (2 years ago)
Launch vehicle
Unknown
Launch site
Taiyaun Space Center, China (TSC)
Object type
Payload
Rocket body
Debris
Shape & HBR
Unknown shape, 0.1 m
Radar Cross Section
Medium (>0.1 m² and <1 m²)

Expand to show TLE details & history
Last TLE update: 6 months ago

TLE from 6 months ago
0 CZ-6A DEB
1 61460U 24140ZS  25365.31441581  .06702009  83748-1  22863-1 0  9993
2 61460  89.1220 296.4074 0013898 140.5774 219.6527 15.95498635 70172
Epoch: 2025-12-31T07:32Z
TLE epoch observation values (Epoch: 2025-12-31T07:32:45.525Z)
Latitude
-0.00002°
Longitude
83.2326°
Altitude
297.365 km
Speed
7.725 km/s
True Right ascension
19h 45m 37s
True Declination
0° 00' 00"
Sunlit
Object was in daylight at epoch
Visualization orbit readout
Latitude
Unknown
Longitude
Unknown
Altitude
Unknown
Speed
Unknown
Apparent Right ascension
Unknown
Apparent Declination
Unknown
Sunlit
N/A
Visualization observer readout
Local Sidereal Time
10:19:03
Azimuth
Unknown
Elevation
Unknown
Doppler factor
Unknown
Orbital elements
Apogee altitude
292.888 km
Perigee altitude
274.371 km
Semi-major axis
6,661.766 km
Eccentricity
0.00139
Inclination
89.122°
RAAN
296.4074°
Arg. of periapsis
140.5774°
True anomaly
219.55121°
Mean anomaly
219.6527°
Eccentric anomaly
219.60194°
Mean motion
3.99171 °/min
Orbital period
90.19 mins
BSTAR
0.022863
Loading maneuver chart data...
Computing Atmospheric mass density...
Loading historical data...
Loading historical data...
Loading historical data...
Loading historical data...
Loading historical data...
Loading historical data...
Loading historical data...

Documentation

Showing up to 5 results
|